Time,TemperatureF,DewpointF,PressureIn,WindDirection,WindDirectionDegrees,WindSpeedMPH,WindSpeedGustMPH,Humidity,HourlyPrecipIn,Conditions,Clouds,dailyrainin,SoftwareType,DateUTC
2013-01-28 00:04:00,32.0,30.0,30.14,SSE,155,4.0,10.0,93,0.00,,,0.00,,2013-01-28 05:04:00,
2013-01-28 00:12:00,32.0,30.0,30.14,SSE,155,4.0,10.0,93,0.00,,,0.00,,2013-01-28 05:12:00,
2013-01-28 00:22:00,32.0,30.0,30.14,South,173,3.0,7.0,93,0.00,,,0.00,,2013-01-28 05:22:00,
2013-01-28 00:32:00,32.0,30.0,30.12,South,170,5.0,9.0,94,0.00,,,0.00,,2013-01-28 05:32:00,
2013-01-28 00:42:00,32.0,30.0,30.12,South,170,5.0,9.0,94,0.00,,,0.00,,2013-01-28 05:42:00,
2013-01-28 00:52:00,33.0,32.0,30.11,SSE,165,5.0,9.0,95,0.00,,,0.00,,2013-01-28 05:52:00,
2013-01-28 01:02:00,33.0,32.0,30.10,SSE,155,7.0,11.0,95,0.00,,,0.00,,2013-01-28 06:02:00,
2013-01-28 01:11:00,33.0,32.0,30.10,SSE,155,7.0,11.0,95,0.00,,,0.00,,2013-01-28 06:11:00,
2013-01-28 01:22:00,33.0,32.0,30.09,SSE,157,7.0,11.0,95,0.00,,,0.00,,2013-01-28 06:22:00,
2013-01-28 01:32:00,33.0,32.0,30.09,SSE,155,2.0,11.0,95,0.00,,,0.00,,2013-01-28 06:32:00,
2013-01-28 01:42:00,33.0,32.0,30.09,SSE,155,2.0,11.0,95,0.00,,,0.00,,2013-01-28 06:42:00,
2013-01-28 01:52:00,33.0,32.0,30.08,South,171,2.0,7.0,95,0.00,,,0.00,,2013-01-28 06:52:00,
2013-01-28 02:03:00,33.0,32.0,30.07,SSE,167,5.0,12.0,95,0.00,,,0.00,,2013-01-28 07:03:00,
2013-01-28 02:11:00,33.0,32.0,30.07,SSE,167,5.0,12.0,95,0.00,,,0.00,,2013-01-28 07:11:00,
2013-01-28 02:22:00,33.0,32.0,30.06,South,169,2.0,8.0,95,0.02,,,0.02,,2013-01-28 07:22:00,
2013-01-28 02:32:00,33.0,32.0,30.05,SSE,160,4.0,13.0,95,0.04,,,0.04,,2013-01-28 07:32:00,
2013-01-28 02:42:00,33.0,32.0,30.05,SSE,160,4.0,13.0,95,0.04,,,0.04,,2013-01-28 07:42:00,
2013-01-28 02:51:00,34.0,33.0,30.04,SSW,198,3.0,10.0,95,0.06,,,0.06,,2013-01-28 07:51:00,
2013-01-28 03:01:00,35.0,34.0,30.05,SSW,209,5.0,10.0,96,0.08,,,0.08,,2013-01-28 08:01:00,
2013-01-28 03:11:00,35.0,34.0,30.05,SSW,209,5.0,10.0,96,0.08,,,0.08,,2013-01-28 08:11:00,
2013-01-28 03:21:00,35.0,34.0,30.04,SSW,193,4.0,7.0,96,0.07,,,0.09,,2013-01-28 08:21:00,
2013-01-28 03:32:00,35.0,34.0,30.04,SSW,205,5.0,7.0,96,0.06,,,0.10,,2013-01-28 08:32:00,
2013-01-28 03:42:00,35.0,34.0,30.04,SSW,205,5.0,7.0,96,0.06,,,0.10,,2013-01-28 08:42:00,
2013-01-28 03:52:00,35.0,34.0,30.03,SSW,196,3.0,8.0,96,0.05,,,0.11,,2013-01-28 08:52:00,
2013-01-28 04:02:00,35.0,34.0,30.01,South,188,4.0,9.0,96,0.04,,,0.12,,2013-01-28 09:02:00,
2013-01-28 04:12:00,35.0,34.0,30.01,South,188,4.0,9.0,96,0.04,,,0.12,,2013-01-28 09:12:00,
2013-01-28 04:22:00,36.0,35.0,30.01,SSW,207,5.0,8.0,96,0.03,,,0.12,,2013-01-28 09:22:00,
2013-01-28 04:32:00,36.0,35.0,30.01,SSW,203,5.0,9.0,97,0.03,,,0.13,,2013-01-28 09:32:00,
2013-01-28 04:42:00,36.0,35.0,30.01,SSW,203,5.0,9.0,97,0.03,,,0.13,,2013-01-28 09:42:00,
2013-01-28 04:52:00,36.0,35.0,30.01,South,176,3.0,8.0,97,0.02,,,0.13,,2013-01-28 09:52:00,
2013-01-28 05:02:00,36.0,35.0,30.00,SSW,208,4.0,8.0,97,0.02,,,0.14,,2013-01-28 10:02:00,
2013-01-28 05:11:00,36.0,35.0,30.00,SSW,208,4.0,8.0,97,0.02,,,0.14,,2013-01-28 10:11:00,
2013-01-28 05:21:00,37.0,36.0,29.99,South,182,4.0,8.0,97,0.02,,,0.14,,2013-01-28 10:21:00,
2013-01-28 05:32:00,37.0,36.0,29.99,South,186,2.0,6.0,97,0.01,,,0.14,,2013-01-28 10:32:00,
2013-01-28 05:42:00,37.0,36.0,29.99,South,186,2.0,6.0,97,0.01,,,0.14,,2013-01-28 10:42:00,
2013-01-28 05:52:00,37.0,36.0,29.98,SSW,193,5.0,7.0,97,0.01,,,0.14,,2013-01-28 10:52:00,
2013-01-28 06:02:00,38.0,37.0,29.97,SSW,198,5.0,8.0,97,0.00,,,0.14,,2013-01-28 11:02:00,
2013-01-28 06:11:00,38.0,37.0,29.97,SSW,198,5.0,8.0,97,0.00,,,0.14,,2013-01-28 11:11:00,
2013-01-28 06:22:00,38.0,37.0,29.97,SSW,198,5.0,8.0,97,0.00,,,0.14,,2013-01-28 11:22:00,
2013-01-28 06:32:00,39.0,38.0,29.97,South,181,3.0,10.0,97,0.01,,,0.15,,2013-01-28 11:32:00,
2013-01-28 06:42:00,39.0,38.0,29.97,South,181,3.0,10.0,97,0.01,,,0.15,,2013-01-28 11:42:00,
2013-01-28 06:52:00,39.0,38.0,29.96,SSW,198,3.0,7.0,97,0.01,,,0.15,,2013-01-28 11:52:00,
2013-01-28 07:03:00,40.0,39.0,29.96,South,181,5.0,7.0,97,0.01,,,0.15,,2013-01-28 12:03:00,
2013-01-28 07:12:00,40.0,39.0,29.96,South,181,5.0,7.0,97,0.01,,,0.15,,2013-01-28 12:12:00,
2013-01-28 07:23:00,40.0,39.0,29.96,South,178,5.0,9.0,97,0.01,,,0.15,,2013-01-28 12:23:00,
2013-01-28 07:33:00,41.0,40.0,29.96,SSW,208,3.0,6.0,97,0.01,,,0.16,,2013-01-28 12:33:00,
2013-01-28 07:42:00,41.0,40.0,29.96,SSW,208,3.0,6.0,97,0.01,,,0.16,,2013-01-28 12:42:00,
2013-01-28 07:52:00,42.0,41.0,29.96,SSW,212,4.0,12.0,97,0.01,,,0.16,,2013-01-28 12:52:00,
2013-01-28 08:03:00,43.0,42.0,29.96,SW,218,6.0,9.0,97,0.01,,,0.16,,2013-01-28 13:03:00,
2013-01-28 08:12:00,43.0,42.0,29.96,SW,218,6.0,9.0,97,0.01,,,0.16,,2013-01-28 13:12:00,
2013-01-28 08:23:00,43.0,42.0,29.96,SW,218,6.0,9.0,97,0.01,,,0.16,,2013-01-28 13:23:00,
2013-01-28 08:33:00,43.0,42.0,29.96,South,179,3.0,9.0,96,0.00,,,0.16,,2013-01-28 13:33:00,
2013-01-28 08:42:00,43.0,42.0,29.96,South,179,3.0,9.0,96,0.00,,,0.16,,2013-01-28 13:42:00,
2013-01-28 08:53:00,43.0,42.0,29.96,SW,223,4.0,8.0,96,0.00,,,0.16,,2013-01-28 13:53:00,
2013-01-28 09:03:00,44.0,43.0,29.95,SSW,204,5.0,10.0,97,0.00,,,0.16,,2013-01-28 14:03:00,
2013-01-28 09:12:00,44.0,43.0,29.95,SSW,204,5.0,10.0,97,0.00,,,0.16,,2013-01-28 14:12:00,
2013-01-28 09:23:00,44.0,43.0,29.95,WSW,254,4.0,10.0,96,0.00,,,0.16,,2013-01-28 14:23:00,
2013-01-28 09:33:00,44.0,43.0,29.95,SSW,209,5.0,12.0,96,0.00,,,0.16,,2013-01-28 14:33:00,
2013-01-28 09:43:00,44.0,43.0,29.95,SSW,209,5.0,12.0,96,0.00,,,0.16,,2013-01-28 14:43:00,
2013-01-28 09:52:00,45.0,44.0,29.95,SSW,206,6.0,12.0,96,0.00,,,0.16,,2013-01-28 14:52:00,
2013-01-28 10:03:00,45.0,44.0,29.95,SSW,209,4.0,11.0,95,0.00,,,0.16,,2013-01-28 15:03:00,
2013-01-28 10:13:00,45.0,44.0,29.95,SSW,209,4.0,11.0,95,0.00,,,0.16,,2013-01-28 15:13:00,
2013-01-28 10:23:00,45.0,44.0,29.95,SW,215,5.0,10.0,95,0.00,,,0.16,,2013-01-28 15:23:00,
2013-01-28 10:33:00,46.0,45.0,29.95,West,259,5.0,13.0,95,0.00,,,0.16,,2013-01-28 15:33:00,
2013-01-28 10:43:00,46.0,45.0,29.95,West,259,5.0,13.0,95,0.00,,,0.16,,2013-01-28 15:43:00,
2013-01-28 10:53:00,46.0,45.0,29.96,SW,236,4.0,8.0,95,0.00,,,0.16,,2013-01-28 15:53:00,
2013-01-28 11:04:00,46.0,45.0,29.96,SSW,213,4.0,10.0,96,0.00,,,0.16,,2013-01-28 16:04:00,
2013-01-28 11:13:00,46.0,45.0,29.96,SSW,213,4.0,10.0,96,0.00,,,0.16,,2013-01-28 16:13:00,
2013-01-28 11:22:00,46.0,45.0,29.96,SW,219,3.0,9.0,95,0.00,,,0.16,,2013-01-28 16:22:00,
2013-01-28 11:33:00,46.0,45.0,29.96,SW,232,5.0,12.0,95,0.00,,,0.16,,2013-01-28 16:33:00,
2013-01-28 11:43:00,46.0,45.0,29.96,SW,232,5.0,12.0,95,0.00,,,0.16,,2013-01-28 16:43:00,
2013-01-28 11:52:00,46.0,45.0,29.96,SSW,207,3.0,9.0,95,0.00,,,0.16,,2013-01-28 16:52:00,
2013-01-28 12:02:00,46.0,45.0,29.96,SW,223,4.0,12.0,95,0.00,,,0.16,,2013-01-28 17:02:00,
2013-01-28 12:12:00,46.0,45.0,29.96,SW,223,4.0,12.0,95,0.00,,,0.16,,2013-01-28 17:12:00,
2013-01-28 12:23:00,47.0,46.0,29.95,WSW,252,4.0,11.0,95,0.00,,,0.16,,2013-01-28 17:23:00,
2013-01-28 12:33:00,47.0,45.0,29.95,WSW,237,4.0,14.0,94,0.00,,,0.16,,2013-01-28 17:33:00,
2013-01-28 12:42:00,47.0,45.0,29.95,WSW,237,4.0,14.0,94,0.00,,,0.16,,2013-01-28 17:42:00,
2013-01-28 12:52:00,47.0,45.0,29.94,WSW,238,4.0,9.0,94,0.00,,,0.16,,2013-01-28 17:52:00,
2013-01-28 13:03:00,47.0,46.0,29.94,SW,235,5.0,11.0,95,0.00,,,0.16,,2013-01-28 18:03:00,
2013-01-28 13:12:00,47.0,46.0,29.94,SW,235,5.0,11.0,95,0.00,,,0.16,,2013-01-28 18:12:00,
2013-01-28 13:23:00,47.0,46.0,29.94,WSW,255,5.0,10.0,95,0.00,,,0.16,,2013-01-28 18:23:00,
2013-01-28 13:33:00,47.0,46.0,29.93,SW,234,6.0,11.0,95,0.00,,,0.16,,2013-01-28 18:33:00,
2013-01-28 13:42:00,47.0,46.0,29.93,SW,234,6.0,11.0,95,0.00,,,0.16,,2013-01-28 18:42:00,
2013-01-28 13:52:00,47.0,46.0,29.93,SW,235,5.0,11.0,96,0.00,,,0.16,,2013-01-28 18:52:00,
2013-01-28 14:02:00,47.0,46.0,29.93,SW,223,5.0,8.0,96,0.00,,,0.16,,2013-01-28 19:02:00,
2013-01-28 14:12:00,47.0,46.0,29.93,SW,223,5.0,8.0,96,0.00,,,0.16,,2013-01-28 19:12:00,
2013-01-28 14:22:00,47.0,46.0,29.93,WSW,249,5.0,10.0,96,0.00,,,0.16,,2013-01-28 19:22:00,
2013-01-28 14:33:00,47.0,46.0,29.93,SW,227,5.0,10.0,96,0.00,,,0.16,,2013-01-28 19:33:00,
2013-01-28 14:42:00,47.0,46.0,29.93,SW,227,5.0,10.0,96,0.00,,,0.16,,2013-01-28 19:42:00,
2013-01-28 14:52:00,47.0,46.0,29.93,WSW,242,5.0,9.0,96,0.00,,,0.16,,2013-01-28 19:52:00,
2013-01-28 15:03:00,47.0,46.0,29.93,SSW,210,5.0,8.0,96,0.00,,,0.16,,2013-01-28 20:03:00,
2013-01-28 15:12:00,47.0,46.0,29.93,SSW,210,5.0,8.0,96,0.00,,,0.16,,2013-01-28 20:12:00,
2013-01-28 15:22:00,47.0,46.0,29.93,SW,217,4.0,11.0,97,0.00,,,0.16,,2013-01-28 20:22:00,
2013-01-28 15:33:00,47.0,46.0,29.93,WSW,241,4.0,9.0,97,0.00,,,0.16,,2013-01-28 20:33:00,
2013-01-28 15:42:00,47.0,46.0,29.93,WSW,241,4.0,9.0,97,0.00,,,0.16,,2013-01-28 20:42:00,
2013-01-28 15:52:00,47.0,46.0,29.93,SW,229,4.0,11.0,97,0.00,,,0.16,,2013-01-28 20:52:00,
2013-01-28 16:03:00,47.0,46.0,29.94,SW,219,3.0,9.0,97,0.00,,,0.16,,2013-01-28 21:03:00,
2013-01-28 16:12:00,47.0,46.0,29.94,SW,219,3.0,9.0,97,0.00,,,0.16,,2013-01-28 21:12:00,
2013-01-28 16:23:00,47.0,46.0,29.95,SSW,194,4.0,7.0,97,0.00,,,0.16,,2013-01-28 21:23:00,
2013-01-28 16:33:00,47.0,46.0,29.95,SW,236,3.0,9.0,97,0.00,,,0.16,,2013-01-28 21:33:00,
2013-01-28 16:43:00,47.0,46.0,29.95,SW,236,3.0,9.0,97,0.00,,,0.16,,2013-01-28 21:43:00,
2013-01-28 16:52:00,47.0,46.0,29.95,SW,225,3.0,7.0,97,0.00,,,0.16,,2013-01-28 21:52:00,
2013-01-28 17:02:00,47.0,46.0,29.96,WSW,240,3.0,6.0,97,0.00,,,0.16,,2013-01-28 22:02:00,
2013-01-28 17:12:00,47.0,46.0,29.96,WSW,240,3.0,6.0,97,0.00,,,0.16,,2013-01-28 22:12:00,
2013-01-28 17:23:00,46.0,45.0,29.96,SW,234,1.0,4.0,97,0.00,,,0.16,,2013-01-28 22:23:00,
2013-01-28 17:33:00,46.0,45.0,29.97,WSW,246,1.0,4.0,97,0.00,,,0.16,,2013-01-28 22:33:00,
2013-01-28 17:42:00,46.0,45.0,29.97,WSW,246,1.0,4.0,97,0.00,,,0.16,,2013-01-28 22:42:00,
2013-01-28 17:52:00,46.0,45.0,29.97,SW,230,0.0,3.0,97,0.00,,,0.16,,2013-01-28 22:52:00,
2013-01-28 18:03:00,46.0,45.0,29.97,SW,224,1.0,4.0,97,0.00,,,0.16,,2013-01-28 23:03:00,
2013-01-28 18:12:00,46.0,45.0,29.97,SW,224,1.0,4.0,97,0.00,,,0.16,,2013-01-28 23:12:00,
2013-01-28 18:22:00,46.0,45.0,29.97,SW,222,1.0,4.0,97,0.00,,,0.16,,2013-01-28 23:22:00,
2013-01-28 18:32:00,47.0,46.0,29.98,SSW,213,1.0,5.0,97,0.00,,,0.16,,2013-01-28 23:32:00,
2013-01-28 18:42:00,47.0,46.0,29.98,SSW,213,1.0,5.0,97,0.00,,,0.16,,2013-01-28 23:42:00,
2013-01-28 18:52:00,46.0,45.0,29.98,SW,215,1.0,6.0,97,0.00,,,0.16,,2013-01-28 23:52:00,
2013-01-28 19:02:00,46.0,45.0,29.98,SSW,209,1.0,3.0,97,0.00,,,0.16,,2013-01-29 00:02:00,
2013-01-28 19:12:00,46.0,45.0,29.98,SSW,209,1.0,3.0,97,0.00,,,0.16,,2013-01-29 00:12:00,
2013-01-28 19:22:00,46.0,45.0,29.99,SSW,213,1.0,4.0,97,0.00,,,0.16,,2013-01-29 00:22:00,
2013-01-28 19:33:00,46.0,45.0,29.99,SSW,208,1.0,5.0,97,0.00,,,0.16,,2013-01-29 00:33:00,
2013-01-28 19:42:00,46.0,45.0,29.99,SSW,208,1.0,5.0,97,0.00,,,0.16,,2013-01-29 00:42:00,
2013-01-28 19:52:00,46.0,45.0,29.99,SW,223,0.0,3.0,97,0.00,,,0.16,,2013-01-29 00:52:00,
2013-01-28 20:02:00,46.0,45.0,29.99,SW,223,0.0,3.0,97,0.00,,,0.16,,2013-01-29 01:02:00,
2013-01-28 20:12:00,46.0,45.0,29.99,SW,223,0.0,3.0,97,0.00,,,0.16,,2013-01-29 01:12:00,
2013-01-28 20:23:00,46.0,45.0,29.99,SW,223,0.0,3.0,97,0.00,,,0.16,,2013-01-29 01:23:00,
2013-01-28 20:32:00,45.0,44.0,30.00,SW,221,0.0,2.0,97,0.01,,,0.17,,2013-01-29 01:32:00,
2013-01-28 20:42:00,45.0,44.0,30.00,SW,221,0.0,2.0,97,0.01,,,0.17,,2013-01-29 01:42:00,
2013-01-28 20:53:00,45.0,44.0,29.99,SW,221,0.0,2.0,97,0.01,,,0.17,,2013-01-29 01:53:00,
2013-01-28 21:02:00,45.0,44.0,29.99,SW,221,0.0,2.0,97,0.01,,,0.17,,2013-01-29 02:02:00,
2013-01-28 21:12:00,45.0,44.0,29.99,SW,221,0.0,2.0,97,0.01,,,0.17,,2013-01-29 02:12:00,
2013-01-28 21:22:00,45.0,44.0,29.99,SW,221,0.0,1.0,97,0.00,,,0.17,,2013-01-29 02:22:00,
2013-01-28 21:33:00,44.0,43.0,29.99,SSW,212,0.0,1.0,97,0.00,,,0.17,,2013-01-29 02:33:00,
2013-01-28 21:42:00,44.0,43.0,29.99,SSW,212,0.0,1.0,97,0.00,,,0.17,,2013-01-29 02:42:00,
2013-01-28 21:52:00,44.0,43.0,29.99,SSW,212,0.0,0.0,97,0.00,,,0.17,,2013-01-29 02:52:00,
2013-01-28 22:03:00,44.0,43.0,29.99,SSW,212,0.0,3.0,97,0.00,,,0.17,,2013-01-29 03:03:00,
2013-01-28 22:12:00,44.0,43.0,29.99,SSW,212,0.0,3.0,97,0.00,,,0.17,,2013-01-29 03:12:00,
2013-01-28 22:22:00,44.0,43.0,29.99,SSW,212,0.0,0.0,98,0.00,,,0.17,,2013-01-29 03:22:00,
2013-01-28 22:32:00,43.0,42.0,29.99,SSW,212,0.0,0.0,97,0.00,,,0.17,,2013-01-29 03:32:00,
2013-01-28 22:42:00,43.0,42.0,29.99,SSW,212,0.0,0.0,97,0.00,,,0.17,,2013-01-29 03:42:00,
2013-01-28 22:52:00,43.0,42.0,29.99,SSW,212,0.0,0.0,97,0.00,,,0.17,,2013-01-29 03:52:00,
2013-01-28 23:03:00,42.0,41.0,29.99,SSW,212,0.0,0.0,97,0.00,,,0.17,,2013-01-29 04:03:00,
2013-01-28 23:12:00,42.0,41.0,29.99,SSW,212,0.0,0.0,97,0.00,,,0.17,,2013-01-29 04:12:00,
2013-01-28 23:22:00,42.0,41.0,29.99,SSW,212,0.0,0.0,97,0.00,,,0.17,,2013-01-29 04:22:00,
2013-01-28 23:32:00,42.0,41.0,29.99,SSW,212,0.0,0.0,97,0.00,,,0.17,,2013-01-29 04:32:00,
2013-01-28 23:42:00,42.0,41.0,29.99,SSW,212,0.0,0.0,97,0.00,,,0.17,,2013-01-29 04:42:00,
2013-01-28 23:52:00,42.0,41.0,29.99,SSW,212,0.0,0.0,98,0.00,,,0.17,,2013-01-29 04:52:00,